Home > Weather > Frankfort > Past weeks

Flag for USA Past Weather in Frankfort, Kentucky, USA — Yesterday and Last 2 Weeks

Now
79 °F

Sunny.


Feels Like: 81 °F
Forecast: 67 / 90 °F
Wind: 3 mph from Southeast

Location: Capital City Airport

Current Time: Jun 25, 2016 at 10:22:12 AM

Latest Report: Jun 25, 2016 at 9:53 AM


Visibility: 10 mi

Pressure: 30.12 "Hg

Humidity: 69%

Dew Point: 68 °F

Location of FrankfortLocation

Past Weather in Frankfort — Graph

°F

Frankfort Temperature Yesterday

Maximum temperature yesterday: 87 °F (at 4:53 PM)
Minimum temperature yesterday: 70 °F (at 3:55 AM)
Average temperature yesterday: 78 °F

High & Low Weather Summary for the Past Weeks

 TemperatureHumidityPressure
High93 °F (Jun 16, 2:53 PM)90% (Jun 11, 4:53 AM)30.30 "Hg (Jun 11, 4:53 AM)
Low63 °F (Jun 11, 4:53 AM)24% (Jun 13, 3:53 PM)29.72 "Hg (Jun 16, 6:53 PM)
Average78 °F65%29.99 "Hg
* Reported Jun 10 8:53 AM — Jun 25 8:53 AM, Frankfort, Weather by CustomWeather, © 2016

Note: Actual official high and low records may vary slightly from our data, if they occured in-between our weather recording intervals... More about our weather records

Advertising

Frankfort Weather History for the Previous 24 Hours

Scroll right to see more
 ConditionsComfort  
Time TempWeatherWind HumidityBarometerVisibility
8:53 AM
Sat, Jun 25
74 °FSunny.5 mph76%30.11 "Hg10 mi
7:53 AM71 °FSunny.No wind84%30.09 "Hg10 mi
6:53 AM67 °FFog.3 mph87%30.08 "Hg6 mi
5:53 AM66 °FClear.No wind90%30.08 "Hg9 mi
4:53 AM67 °FFog.No wind90%30.06 "Hg6 mi
3:53 AM68 °FClear.No wind87%30.06 "Hg7 mi
2:53 AM69 °FClear.No wind87%30.05 "Hg7 mi
1:53 AM69 °FFog.3 mph90%30.05 "Hg6 mi
12:53 AM69 °FClear.No wind90%30.05 "Hg7 mi
11:53 PM
Fri, Jun 24
72 °FClear.3 mph81%30.03 "Hg10 mi
10:53 PM71 °FClear.No wind87%30.03 "Hg10 mi
9:53 PM75 °FSunny.No wind79%30.01 "Hg10 mi
8:53 PM80 °FSunny.No wind64%30.01 "Hg10 mi
7:53 PM85 °FSunny.5 mph51%30.00 "Hg10 mi
6:53 PM87 °FSunny.5 mph43%30.00 "Hg10 mi
5:53 PM87 °FPassing clouds.8 mph50%30.01 "Hg10 mi
4:53 PM87 °FPassing clouds.5 mph50%30.01 "Hg10 mi
3:53 PM86 °FBroken clouds.6 mph49%30.01 "Hg10 mi
2:53 PM86 °FPassing clouds.7 mph51%30.01 "Hg10 mi
1:53 PM86 °FBroken clouds.6 mph51%30.00 "Hg10 mi
12:53 PM82 °FPartly sunny.5 mph63%30.01 "Hg10 mi
11:53 AM83 °FScattered clouds.7 mph65%30.01 "Hg10 mi
10:53 AM78 °FPartly sunny.6 mph76%29.99 "Hg9 mi
Weather by CustomWeather, © 2016

See weather overviewHow to use our weather pages